Location: Harburg
(48.7667°N, 10.6667°E)
Time: 05:56:02
(UTC+00:00)

Cosmos 372 Rocket - Pass Details

Date: 18 September 2020
Orbit: 739 x 767 km, 74.1° (Epoch: 22 October)

Event Time Altitude Azimuth Distance (km) Brightness Sun altitude
Rises 18:43:38 0° 191° (S) 3,223 7.2 -13.8°
Reaches altitude 10° 18:46:01 10° 188° (S) 2,300 6.4 -14.2°
Maximum altitude 18:51:11 64° 108° (ESE) 850 3.9 -15.0°
Drops below altitude 10° 18:56:21 10° 28° (NNE) 2,306 6.4 -15.8°
Sets 18:58:44 0° 26° (NNE) 3,232 7.2 -16.2°
